sat.trackr.live / text

‹ back to catalog

YAOGAN-9 01B

NORAD 36414 · 2010-009B

PAYLOAD ACTIVE UNKNOWN

§ Identity

Operator
Country
PRC
Launch date
2010-03-05
Launch site
JSC
Launch vehicle
Mass (kg)
RCS (m²)
2.91

External: N2YO · Heavens-Above · Gunter

§ Orbital elements

Epoch: 2026-05-25T03:26:34.461888Z

Period
107.01 min
Inclination
63.3674°
Eccentricity
0.0536433
Mean motion
13.45704796 rev/d
Perigee alt
687.6 km
Apogee alt
1,488.6 km
Semi-major
7,466.2 km
B*
1.1605e-4
RAAN
57.4874°
Arg perigee
20.7236°
Mean anomaly
341.4667°
Rev number
79,664

§ Raw data

YAOGAN-9 01B1 36414U 10009B   26145.14345442  .00000074  00000+0  11605-3 0  99992 36414  63.3674  57.4874 0536433  20.7236 341.4667 13.45704796796647

JSON: /api/v1/satellites/36414 · /tle

For live sub-satellite position, see the globe view (requires WebGL).

§ Visibility from observer

Set your observer location to see the next 7 days of passes ≥ 10°. The values pass through the URL so the page stays shareable.

No JS? Fill the form by hand. The geolocation button needs JavaScript.